Regional Weather Roundup
Issued by NWS

Home | Current Version | Previous Version | Text Only | Print | Product List | Glossary On
Versions: 1 2 3 4 5 6 7 8 9 10 11 12 13 14 15 16 17 18 19 20 21 22 23 24 25 26 27 28 29 30 31 32 33 34 35 36 37 38 39 40 41 42 43 44 45 46 47 48 49 50
206
ASUS43 KLMK 272310
RWRKY
KENTUCKY REGIONAL WEATHER ROUNDUP
NATIONAL WEATHER SERVICE LOUISVILLE KY
600 PM EST MON FEB 27 2017

NOTE "FAIR" INDICATES FEW OR NO CLOUDS BELOW 12,000 FEET
WITH NO SIGNIFICANT WEATHER AND/OR OBSTRUCTIONS TO VISIBILITY.

KYZ001>023-026-027-061>063-070>075-280000-
WESTERN AND SOUTH CENTRAL KENTUCKY

CITY           SKY/WX    TMP DP  RH WIND       PRES   REMARKS
PADUCAH        CLOUDY    64  46  52 S6        30.06F
HENDERSON      MOCLDY    63  45  51 S5        30.09S
OWENSBORO      CLEAR     61  46  57 S7        30.11S
HOPKINSVILLE   CLEAR     63  43  47 S7        30.11S
BOWLING GREEN  CLEAR     61  42  49 S9        30.15R
GLASGOW        CLEAR     60  41  49 S8        30.16R
$$

KYZ024-025-028>034-038-045-046-053-280000-
NORTH CENTRAL KENTUCKY

CITY           SKY/WX    TMP DP  RH WIND       PRES   REMARKS
LOUISVILLE/SDF PTCLDY    59  37  44 S7        30.14F
LOUISVILLE/LOU CLEAR     59  38  45 S7        30.15F
FORT KNOX      CLEAR     57  40  53 S8        30.12S
$$

KYZ035>037-039>044-047>052-055>060-089>105-280000-
NORTHEAST KENTUCKY

CITY           SKY/WX    TMP DP  RH WIND       PRES   REMARKS
LEXINGTON      PTCLDY    57  38  48 CALM      30.17S
COVINGTON      MOCLDY    48  41  76 SE9       30.18F
FRANKFORT      CLEAR     56  36  47 SE5       30.16S
$$

KYZ054-064>069-076>088-106>120-280000-
SOUTHEAST KENTUCKY

CITY           SKY/WX    TMP DP  RH WIND       PRES   REMARKS
JACKSON        CLOUDY    53  31  42 CALM      30.22S
LONDON         CLOUDY    53  34  48 S5        30.21S
SOMERSET       PTCLDY    54  36  50 S3        30.21S
MIDDLESBORO    CLOUDY    52  35  52 SE3       30.24R
MONTICELLO     PTCLDY    55  41  59 VRB3      30.21R
$$





USA.gov is the U.S. government's official web portal to all federal, state and local government web resources and services.